Location: Ash Swamp
(41.5170°N, 74.6157°W)
Time: 17:26:49
(UTC+00:00)

Lacrosse 5 rocket - Pass Details

Date: 14 July 2020
Orbit: 464 x 632 km, 57.0° (Epoch: 04 August)

Event Time Altitude Azimuth Distance (km) Brightness Sun altitude
Rises 02:55:15 0° 320° (NW) 2,731 6.4 -20.1°
Reaches altitude 10° 02:57:43 10° 330° (NNW) 1,802 5.2 -20.4°
Maximum altitude 03:01:23 31° 34° (NE) 920 2.6 -20.7°
Enters shadow 03:02:36 26° 70° (ENE) 1,044 2.6 -20.8°
